LPE2422 SPJC-SBPA

Flight info

Callsign LPE2422
Flight time N/A
Altitude 33000
Route AKSOL UM548 BOMEL UM793 REPES UM548 SORSU/N0454F350 UM548 EGEXO DCT OBLUM DCT ROLOK DCT 260119S0552552W DCT EDMAR DCT NOBEL
Aircraft A321/M-SDE3FGHIRWY/LB1

Departure

Time 2026-04-27 21:27
Airport Jorge Chávez International Airport (SPJC)

Arrival

Time N/A
Airport Porto Alegre-Salgado Filho International Airport (SBPA)
Time Latitude Longitude Altitude Speed Heading
2026-04-27 21:08 -12.02402 -77.10903 117 ft 0 kts 64°
2026-04-27 21:13 -12.02407 -77.10912 117 ft 2 kts 57°
2026-04-27 21:14 -12.02416 -77.10925 117 ft 2 kts 50°
2026-04-27 21:14 -12.02427 -77.10936 117 ft 2 kts 41°
2026-04-27 21:14 -12.02440 -77.10947 117 ft 2 kts 32°
2026-04-27 21:14 -12.02453 -77.10954 117 ft 2 kts 24°
2026-04-27 21:15 -12.02467 -77.10960 117 ft 2 kts 17°
2026-04-27 21:15 -12.02482 -77.10963 117 ft 2 kts
2026-04-27 21:15 -12.02496 -77.10965 117 ft 2 kts
2026-04-27 21:15 -12.02511 -77.10964 117 ft 2 kts 352°
2026-04-27 21:16 -12.02526 -77.10961 117 ft 2 kts 344°
2026-04-27 21:16 -12.02542 -77.10955 117 ft 2 kts 335°
2026-04-27 21:16 -12.02556 -77.10948 117 ft 1 kts 334°
2026-04-27 21:16 -12.02558 -77.10947 117 ft 0 kts 334°
2026-04-27 21:19 -12.02554 -77.10949 117 ft 1 kts 334°
2026-04-27 21:19 -12.02543 -77.10955 117 ft 2 kts 330°
2026-04-27 21:20 -12.02513 -77.10989 117 ft 4 kts 302°
2026-04-27 21:20 -12.02497 -77.11018 117 ft 4 kts 300°
2026-04-27 21:20 -12.02478 -77.11051 117 ft 5 kts 300°
2026-04-27 21:20 -12.02453 -77.11086 117 ft 6 kts 322°
2026-04-27 21:21 -12.02412 -77.11110 117 ft 7 kts 334°
2026-04-27 21:21 -12.02363 -77.11134 117 ft 8 kts 334°
2026-04-27 21:21 -12.02310 -77.11160 117 ft 9 kts 334°
2026-04-27 21:21 -12.02251 -77.11189 117 ft 9 kts 334°
2026-04-27 21:22 -12.02184 -77.11224 117 ft 11 kts 334°
2026-04-27 21:22 -12.02107 -77.11259 117 ft 12 kts 335°
2026-04-27 21:22 -12.02022 -77.11302 117 ft 14 kts 334°
2026-04-27 21:22 -12.01931 -77.11347 116 ft 15 kts 334°
2026-04-27 21:23 -12.01833 -77.11395 116 ft 16 kts 334°
2026-04-27 21:23 -12.01730 -77.11447 117 ft 16 kts 334°
2026-04-27 21:23 -12.01622 -77.11500 117 ft 17 kts 334°
2026-04-27 21:23 -12.01512 -77.11554 117 ft 17 kts 334°
2026-04-27 21:24 -12.01398 -77.11611 117 ft 18 kts 333°
2026-04-27 21:24 -12.01281 -77.11668 116 ft 18 kts 334°
2026-04-27 21:24 -12.01162 -77.11727 117 ft 19 kts 333°
2026-04-27 21:24 -12.01041 -77.11787 117 ft 19 kts 334°
2026-04-27 21:25 -12.00917 -77.11847 116 ft 19 kts 334°
2026-04-27 21:25 -12.00792 -77.11909 117 ft 20 kts 334°
2026-04-27 21:25 -12.00689 -77.11972 117 ft 13 kts 303°
2026-04-27 21:25 -12.00699 -77.12067 117 ft 13 kts 243°
2026-04-27 21:26 -12.00785 -77.12109 117 ft 14 kts 181°
2026-04-27 21:26 -12.00888 -77.12073 117 ft 27 kts 154°
2026-04-27 21:26 -12.01314 -77.11865 117 ft 105 kts 154°
2026-04-27 21:26 -12.02190 -77.11433 118 ft 170 kts 155°
2026-04-27 21:27 -12.03281 -77.10894 763 ft 176 kts 156°
2026-04-27 21:27 -12.04346 -77.10367 1580 ft 172 kts 156°
2026-04-27 21:27 -12.05446 -77.09825 2235 ft 180 kts 155°
2026-04-27 21:27 -12.06620 -77.09247 2590 ft 192 kts 155°
2026-04-27 21:28 -12.07926 -77.08601 2873 ft 208 kts 154°
2026-04-27 21:28 -12.09286 -77.07926 3146 ft 226 kts 154°
2026-04-27 21:28 -12.10761 -77.07195 3462 ft 243 kts 154°
2026-04-27 21:28 -12.12316 -77.06425 3812 ft 258 kts 154°